Norfolk, NE

12:48 AM CDT on August 31, 2016 (GMT -0500)
Stefan Memorial

Weather History for KOFK - August, 2014

Change the Weather History Date:

Sunday, August 31, 2014

  Actual Average Record
Temperature  
Mean Temperature 72 °F 70 °F  
Max Temperature 83 °F 82 °F 102 °F (1922)
Min Temperature 61 °F 58 °F 40 °F (1967)
Degree Days  
Heating Degree Days 0 1  
Month to date heating degree days 0 8  
Since 1 June heating degree days 37 46  
Since 1 July heating degree days 12 16  
Cooling Degree Days 7 6  
Month to date cooling degree days 240 255  
Year to date cooling degree days 727 816  
Since 1 June cooling degree days 630 755  
Growing Degree Days 23 (Base 50)    
Moisture  
Dew Point 64 °F    
Average Humidity 74    
Maximum Humidity 93    
Minimum Humidity 55    
Precipitation  
Precipitation 1.34 in 0.10 in 1.34 in (2014)
Month to date precipitation 7.21 3.25  
Year to date precipitation 25.22 20.53  
Snow  
Snow 0.00 in 0.00 in - ()
Month to date snowfall 0.0 0.0  
Since 1 July snowfall 0.0 0.0  
Snow Depth 0.00 in    
Sea Level Pressure  
Sea Level Pressure 29.71 in    
Wind  
Wind Speed 9 mph (SSE)    
Max Wind Speed 36 mph    
Max Gust Speed 44 mph    
Visibility 8 miles    
Events Fog , Rain , Thunderstorm    
T = Trace of Precipitation, MM = Missing Value Source: NWS Daily Summary

Daily Weather History Graph

Daily Weather History Graph

Search for Another Location

Airport or City:

Trip Planner

Search our weather history database for the weather conditions in past years. The results will help you decide how hot, cold, wet, or windy it might be!

Date:

Astronomy

Aug. 31, 2014 Rise Set
Actual Time 6:54 AM CDT 8:04 PM CDT
Civil Twilight 6:25 AM CDT 8:33 PM CDT
Nautical Twilight 5:51 AM CDT 9:07 PM CDT
Astronomical Twilight 5:14 AM CDT 9:43 PM CDT
Moon 12:48 PM CDT 11:14 PM CDT
Length of Visible Light 14h 08m
Length of Day
13h 10m
Waxing Crescent, 32% of the Moon is Illuminated
Aug 31
Waxing Crescent
Sep 2
First Quarter
Sep 8
Full
Sep 15
Last Quarter
Sep 24
New

Hourly Weather History & Observations

Time (CDT) Temp. Heat Index Dew Point Humidity Pressure Visibility Wind Dir Wind Speed Gust Speed Precip Events Conditions
12:56 AM 69.1 °F - 63.0 °F 81% 29.78 in 10.0 mi SE 6.9 mph - N/A   Clear
1:56 AM 69.1 °F - 63.0 °F 81% 29.78 in 10.0 mi SE 8.1 mph - N/A   Clear
2:56 AM 69.1 °F - 63.0 °F 81% 29.75 in 10.0 mi SSE 12.7 mph - N/A   Clear
3:56 AM 70.0 °F - 62.1 °F 76% 29.73 in 10.0 mi South 17.3 mph - N/A   Clear
4:56 AM 66.9 °F - 62.1 °F 84% 29.73 in 10.0 mi SSE 10.4 mph - N/A   Clear
5:56 AM 64.9 °F - 62.1 °F 90% 29.72 in 10.0 mi SE 5.8 mph - N/A   Partly Cloudy
6:45 AM 66.9 °F - 62.1 °F 84% 29.73 in 10.0 mi SSE 12.7 mph - N/A Thunderstorm Clear
6:56 AM 69.1 °F - 61.0 °F 75% 29.69 in 10.0 mi South 18.4 mph 25.3 mph N/A   Clear
7:56 AM 73.9 °F - 60.1 °F 62% 29.68 in 10.0 mi South 20.7 mph 26.5 mph N/A   Clear
8:56 AM 73.0 °F - 61.0 °F 66% 29.70 in 10.0 mi South 11.5 mph - N/A   Clear
9:56 AM 73.0 °F - 62.1 °F 68% 29.73 in 10.0 mi Variable 5.8 mph - 0.00 in   Scattered Clouds
12:56 PM 82.0 °F 83.8 °F 64.9 °F 56% 29.69 in 10.0 mi South 6.9 mph - N/A   Partly Cloudy
1:56 PM 82.9 °F 85.0 °F 66.0 °F 56% 29.69 in 10.0 mi South 8.1 mph - N/A   Clear
2:56 PM 82.0 °F 84.5 °F 66.9 °F 60% 29.68 in 10.0 mi South 6.9 mph - N/A   Clear
3:56 PM 82.0 °F 84.9 °F 68.0 °F 62% 29.67 in 10.0 mi SE 6.9 mph - N/A   Mostly Cloudy
4:19 PM 80.1 °F 82.9 °F 69.1 °F 69% 29.68 in 10.0 mi ESE 9.2 mph - N/A Thunderstorm Thunderstorm
4:38 PM 73.9 °F - 68.0 °F 82% 29.69 in 0.8 mi North - - 0.04 in Rain , Thunderstorm Heavy Thunderstorms and Rain
4:46 PM 68.0 °F - 64.9 °F 90% 29.71 in 0.5 mi NW 27.6 mph 43.7 mph 0.42 in Fog , Rain , Thunderstorm Heavy Thunderstorms and Rain
4:56 PM 66.0 °F - 64.9 °F 96% 29.72 in 0.8 mi North 20.7 mph 33.4 mph 0.92 in Rain , Thunderstorm Heavy Thunderstorms and Rain
5:05 PM 66.0 °F - 64.9 °F 96% 29.73 in 1.5 mi NE 10.4 mph 26.5 mph 0.19 in Rain , Thunderstorm Heavy Thunderstorms and Rain
5:10 PM 66.9 °F - 64.9 °F 93% 29.73 in 2.0 mi ENE 13.8 mph - 0.27 in Rain , Thunderstorm Heavy Thunderstorms and Rain
5:16 PM 66.0 °F - 64.9 °F 96% 29.69 in 3.0 mi East 12.7 mph - 0.35 in Rain , Thunderstorm Heavy Thunderstorms and Rain
5:40 PM 66.9 °F - 64.0 °F 90% 29.74 in 10.0 mi NW 13.8 mph - 0.40 in Rain , Thunderstorm Light Rain
5:47 PM 66.9 °F - 64.9 °F 93% 29.77 in 10.0 mi WNW 8.1 mph - 0.40 in   Mostly Cloudy
5:56 PM 68.0 °F - 64.9 °F 90% 29.73 in 10.0 mi NE 5.8 mph - 0.40 in   Mostly Cloudy
6:56 PM 71.1 °F - 64.0 °F 78% 29.67 in 10.0 mi NNW 8.1 mph - 0.01 in   Clear
7:56 PM 69.1 °F - 63.0 °F 81% 29.60 in 10.0 mi SE 5.8 mph - N/A   Clear
8:56 PM 66.9 °F - 63.0 °F 87% 29.68 in 10.0 mi SSE 5.8 mph - N/A   Clear
9:56 PM 64.0 °F - 62.1 °F 93% 29.68 in 10.0 mi Calm Calm - N/A   Clear
11:56 PM 63.0 °F - 61.0 °F 93% 29.68 in 10.0 mi SW 3.5 mph - N/A   Clear